Time,TemperatureF,DewpointF,PressureIn,WindDirection,WindDirectionDegrees,WindSpeedMPH,WindSpeedGustMPH,Humidity,HourlyPrecipIn,Conditions,Clouds,dailyrainin,SolarRadiationWatts/m^2,SoftwareType,DateUTC
2013-06-06 00:01:00,48.0,47.0,-100.00,ESE,117,3.0,7.0,97,0.04,,,0.97,0.000000,,2013-06-06 05:01:00,
2013-06-06 00:23:00,48.0,47.0,-100.00,ESE,117,3.0,7.0,97,0.04,,,0.97,0.000000,,2013-06-06 05:23:00,
2013-06-06 00:32:00,48.0,47.0,-100.00,ESE,117,3.0,7.0,97,0.04,,,0.97,0.000000,,2013-06-06 05:32:00,
2013-06-06 00:42:00,48.0,47.0,-100.00,ESE,117,3.0,7.0,97,0.04,,,0.97,0.000000,,2013-06-06 05:42:00,
2013-06-06 00:52:00,48.0,47.0,-100.00,ESE,117,3.0,7.0,97,0.04,,,0.97,0.000000,,2013-06-06 05:52:00,
2013-06-06 01:01:00,48.0,47.0,-100.00,East,96,3.0,6.0,98,0.15,,,1.11,0.000000,,2013-06-06 06:01:00,
2013-06-06 01:22:00,48.0,47.0,-100.00,East,96,3.0,6.0,98,0.15,,,1.11,0.000000,,2013-06-06 06:22:00,
2013-06-06 01:33:00,48.0,47.0,-100.00,East,96,3.0,6.0,98,0.15,,,1.11,0.000000,,2013-06-06 06:33:00,
2013-06-06 01:42:00,48.0,47.0,-100.00,East,96,3.0,6.0,98,0.15,,,1.11,0.000000,,2013-06-06 06:42:00,
2013-06-06 01:52:00,48.0,47.0,-100.00,East,96,3.0,6.0,98,0.15,,,1.11,0.000000,,2013-06-06 06:52:00,
2013-06-06 02:01:00,48.0,47.0,-100.00,East,83,3.0,5.0,98,0.01,,,1.10,0.000000,,2013-06-06 07:01:00,
2013-06-06 02:22:00,48.0,47.0,-100.00,East,83,3.0,5.0,98,0.01,,,1.10,0.000000,,2013-06-06 07:22:00,
2013-06-06 02:32:00,48.0,47.0,-100.00,East,83,3.0,5.0,98,0.01,,,1.10,0.000000,,2013-06-06 07:32:00,
2013-06-06 02:42:00,48.0,47.0,-100.00,East,83,3.0,5.0,98,0.01,,,1.10,0.000000,,2013-06-06 07:42:00,
2013-06-06 02:52:00,48.0,47.0,-100.00,East,83,3.0,5.0,98,0.01,,,1.10,0.000000,,2013-06-06 07:52:00,
2013-06-06 03:01:00,48.0,47.0,-100.00,ENE,78,3.0,6.0,98,0.00,,,-99.99,0.000000,,2013-06-06 08:01:00,
2013-06-06 03:22:00,48.0,47.0,-100.00,ENE,78,3.0,6.0,98,0.00,,,-99.99,0.000000,,2013-06-06 08:22:00,
2013-06-06 03:32:00,48.0,47.0,-100.00,ENE,78,3.0,6.0,98,0.00,,,-99.99,0.000000,,2013-06-06 08:32:00,
2013-06-06 03:42:00,48.0,47.0,-100.00,ENE,78,3.0,6.0,98,0.00,,,-99.99,0.000000,,2013-06-06 08:42:00,
2013-06-06 03:52:00,48.0,47.0,-100.00,ENE,78,3.0,6.0,98,0.00,,,-99.99,0.000000,,2013-06-06 08:52:00,
2013-06-06 04:01:00,48.0,48.0,-100.00,East,79,3.0,5.0,99,0.02,,,1.08,0.000000,,2013-06-06 09:01:00,
2013-06-06 04:22:00,48.0,48.0,-100.00,East,79,3.0,5.0,99,0.02,,,1.08,0.000000,,2013-06-06 09:22:00,
2013-06-06 04:33:00,48.0,48.0,-100.00,East,79,3.0,5.0,99,0.02,,,1.08,0.000000,,2013-06-06 09:33:00,
2013-06-06 04:43:00,48.0,48.0,-100.00,East,79,3.0,5.0,99,0.02,,,1.08,0.000000,,2013-06-06 09:43:00,
2013-06-06 04:53:00,48.0,48.0,-100.00,East,79,3.0,5.0,99,0.02,,,1.08,0.000000,,2013-06-06 09:53:00,
2013-06-06 05:01:00,47.0,47.0,-100.00,ENE,74,3.0,5.0,99,0.01,,,0.94,0.000000,,2013-06-06 10:01:00,
2013-06-06 05:23:00,47.0,47.0,-100.00,ENE,74,3.0,5.0,99,0.01,,,0.94,0.000000,,2013-06-06 10:23:00,
2013-06-06 05:33:00,47.0,47.0,-100.00,ENE,74,3.0,5.0,99,0.01,,,0.94,0.000000,,2013-06-06 10:33:00,
2013-06-06 05:42:00,47.0,47.0,-100.00,ENE,74,3.0,5.0,99,0.01,,,0.94,0.000000,,2013-06-06 10:42:00,
2013-06-06 05:53:00,47.0,47.0,-100.00,ENE,74,3.0,5.0,99,0.01,,,0.94,0.000000,,2013-06-06 10:53:00,
2013-06-06 06:01:00,48.0,47.0,-100.00,ENE,78,4.0,7.0,98,0.00,,,-99.99,4.000000,,2013-06-06 11:01:00,
2013-06-06 06:23:00,48.0,47.0,-100.00,ENE,78,4.0,7.0,98,0.00,,,-99.99,4.000000,,2013-06-06 11:23:00,
2013-06-06 06:32:00,48.0,47.0,-100.00,ENE,78,4.0,7.0,98,0.00,,,-99.99,4.000000,,2013-06-06 11:32:00,
2013-06-06 06:42:00,48.0,47.0,-100.00,ENE,78,4.0,7.0,98,0.00,,,-99.99,4.000000,,2013-06-06 11:42:00,
2013-06-06 06:52:00,48.0,47.0,-100.00,ENE,78,4.0,7.0,98,0.00,,,-99.99,4.000000,,2013-06-06 11:52:00,
2013-06-06 07:01:00,48.0,47.0,-100.00,East,84,4.0,8.0,97,0.00,,,0.91,26.000000,,2013-06-06 12:01:00,
2013-06-06 07:23:00,48.0,47.0,-100.00,East,84,4.0,8.0,97,0.00,,,0.91,26.000000,,2013-06-06 12:23:00,
2013-06-06 07:33:00,48.0,47.0,-100.00,East,84,4.0,8.0,97,0.00,,,0.91,26.000000,,2013-06-06 12:33:00,
2013-06-06 07:43:00,48.0,47.0,-100.00,East,84,4.0,8.0,97,0.00,,,0.91,26.000000,,2013-06-06 12:43:00,
2013-06-06 07:53:00,48.0,47.0,-100.00,East,84,4.0,8.0,97,0.00,,,0.91,26.000000,,2013-06-06 12:53:00,
2013-06-06 08:01:00,49.0,48.0,-100.00,ENE,72,5.0,9.0,96,0.00,,,0.91,88.000000,,2013-06-06 13:01:00,
2013-06-06 08:23:00,49.0,48.0,-100.00,ENE,72,5.0,9.0,96,0.00,,,0.91,88.000000,,2013-06-06 13:23:00,
2013-06-06 08:33:00,49.0,48.0,-100.00,ENE,72,5.0,9.0,96,0.00,,,0.91,88.000000,,2013-06-06 13:33:00,
2013-06-06 08:43:00,49.0,48.0,-100.00,ENE,72,5.0,9.0,96,0.00,,,0.91,88.000000,,2013-06-06 13:43:00,
2013-06-06 08:53:00,49.0,48.0,-100.00,ENE,72,5.0,9.0,96,0.00,,,0.91,88.000000,,2013-06-06 13:53:00,
2013-06-06 09:01:00,49.0,47.0,-100.00,East,90,5.0,11.0,93,0.00,,,0.91,137.000000,,2013-06-06 14:01:00,
2013-06-06 09:23:00,49.0,47.0,-100.00,East,90,5.0,11.0,93,0.00,,,0.91,137.000000,,2013-06-06 14:23:00,
2013-06-06 09:33:00,49.0,47.0,-100.00,East,90,5.0,11.0,93,0.00,,,0.91,137.000000,,2013-06-06 14:33:00,
2013-06-06 09:43:00,49.0,47.0,-100.00,East,90,5.0,11.0,93,0.00,,,0.91,137.000000,,2013-06-06 14:43:00,
2013-06-06 09:53:00,49.0,47.0,-100.00,East,90,5.0,11.0,93,0.00,,,0.91,137.000000,,2013-06-06 14:53:00,
2013-06-06 10:01:00,50.0,47.0,-100.00,East,82,4.0,10.0,91,0.00,,,0.91,165.000000,,2013-06-06 15:01:00,
2013-06-06 10:23:00,50.0,47.0,-100.00,East,82,4.0,10.0,91,0.00,,,0.91,165.000000,,2013-06-06 15:23:00,
2013-06-06 10:33:00,50.0,47.0,-100.00,East,82,4.0,10.0,91,0.00,,,0.91,165.000000,,2013-06-06 15:33:00,
2013-06-06 10:43:00,50.0,47.0,-100.00,East,82,4.0,10.0,91,0.00,,,0.91,165.000000,,2013-06-06 15:43:00,
2013-06-06 10:53:00,50.0,47.0,-100.00,East,82,4.0,10.0,91,0.00,,,0.91,165.000000,,2013-06-06 15:53:00,
2013-06-06 11:01:00,53.0,48.0,-100.00,ENE,75,6.0,10.0,84,0.00,,,0.91,338.000000,,2013-06-06 16:01:00,
2013-06-06 11:23:00,53.0,48.0,-100.00,ENE,75,6.0,10.0,84,0.00,,,0.91,338.000000,,2013-06-06 16:23:00,
2013-06-06 11:34:00,53.0,48.0,-100.00,ENE,75,6.0,10.0,84,0.00,,,0.91,338.000000,,2013-06-06 16:34:00,
2013-06-06 11:44:00,53.0,48.0,-100.00,ENE,75,6.0,10.0,84,0.00,,,0.91,338.000000,,2013-06-06 16:44:00,
2013-06-06 11:53:00,53.0,48.0,-100.00,ENE,75,6.0,10.0,84,0.00,,,0.91,338.000000,,2013-06-06 16:53:00,
2013-06-06 12:01:00,55.0,48.0,-100.00,East,80,7.0,13.0,78,0.00,,,0.89,447.000000,,2013-06-06 17:01:00,
2013-06-06 12:23:00,55.0,48.0,-100.00,East,80,7.0,13.0,78,0.00,,,0.89,447.000000,,2013-06-06 17:23:00,
2013-06-06 12:33:00,55.0,48.0,-100.00,East,80,7.0,13.0,78,0.00,,,0.89,447.000000,,2013-06-06 17:33:00,
2013-06-06 12:43:00,55.0,48.0,-100.00,East,80,7.0,13.0,78,0.00,,,0.89,447.000000,,2013-06-06 17:43:00,
2013-06-06 12:53:00,55.0,48.0,-100.00,East,80,7.0,13.0,78,0.00,,,0.89,447.000000,,2013-06-06 17:53:00,
2013-06-06 13:01:00,54.0,49.0,-100.00,ENE,73,5.0,11.0,83,0.00,,,0.88,264.000000,,2013-06-06 18:01:00,
2013-06-06 13:23:00,54.0,49.0,-100.00,ENE,73,5.0,11.0,83,0.00,,,0.88,264.000000,,2013-06-06 18:23:00,
2013-06-06 13:33:00,54.0,49.0,-100.00,ENE,73,5.0,11.0,83,0.00,,,0.88,264.000000,,2013-06-06 18:33:00,
2013-06-06 13:43:00,54.0,49.0,-100.00,ENE,73,5.0,11.0,83,0.00,,,0.88,264.000000,,2013-06-06 18:43:00,
2013-06-06 13:53:00,54.0,49.0,-100.00,ENE,73,5.0,11.0,83,0.00,,,0.88,264.000000,,2013-06-06 18:53:00,
2013-06-06 14:01:00,54.0,48.0,-100.00,East,86,6.0,11.0,80,0.00,,,0.88,285.000000,,2013-06-06 19:01:00,
2013-06-06 14:23:00,54.0,48.0,-100.00,East,86,6.0,11.0,80,0.00,,,0.88,285.000000,,2013-06-06 19:23:00,
2013-06-06 14:43:00,54.0,48.0,-100.00,East,86,6.0,11.0,80,0.00,,,0.88,285.000000,,2013-06-06 19:43:00,
2013-06-06 14:53:00,54.0,48.0,-100.00,East,86,6.0,11.0,80,0.00,,,0.88,285.000000,,2013-06-06 19:53:00,
2013-06-06 15:01:00,56.0,49.0,-100.00,East,84,6.0,12.0,76,0.00,,,0.88,364.000000,,2013-06-06 20:01:00,
2013-06-06 15:23:00,56.0,49.0,-100.00,East,84,6.0,12.0,76,0.00,,,0.88,364.000000,,2013-06-06 20:23:00,
2013-06-06 15:33:00,56.0,49.0,-100.00,East,84,6.0,12.0,76,0.00,,,0.88,364.000000,,2013-06-06 20:33:00,
2013-06-06 15:43:00,56.0,49.0,-100.00,East,84,6.0,12.0,76,0.00,,,0.88,364.000000,,2013-06-06 20:43:00,
2013-06-06 15:53:00,56.0,49.0,-100.00,East,84,6.0,12.0,76,0.00,,,0.88,364.000000,,2013-06-06 20:53:00,
2013-06-06 16:01:00,55.0,47.0,-100.00,East,96,6.0,11.0,73,0.00,,,0.87,277.000000,,2013-06-06 21:01:00,
2013-06-06 16:23:00,55.0,47.0,-100.00,East,96,6.0,11.0,73,0.00,,,0.87,277.000000,,2013-06-06 21:23:00,
2013-06-06 16:33:00,55.0,47.0,-100.00,East,96,6.0,11.0,73,0.00,,,0.87,277.000000,,2013-06-06 21:33:00,
2013-06-06 16:44:00,55.0,47.0,-100.00,East,96,6.0,11.0,73,0.00,,,0.87,277.000000,,2013-06-06 21:44:00,
2013-06-06 16:53:00,55.0,47.0,-100.00,East,96,6.0,11.0,73,0.00,,,0.87,277.000000,,2013-06-06 21:53:00,
2013-06-06 17:01:00,53.0,47.0,-100.00,ENE,77,4.0,10.0,80,0.01,,,0.76,135.000000,,2013-06-06 22:01:00,
2013-06-06 17:23:00,53.0,47.0,-100.00,ENE,77,4.0,10.0,80,0.01,,,0.76,135.000000,,2013-06-06 22:23:00,
2013-06-06 17:33:00,53.0,47.0,-100.00,ENE,77,4.0,10.0,80,0.01,,,0.76,135.000000,,2013-06-06 22:33:00,
2013-06-06 17:43:00,53.0,47.0,-100.00,ENE,77,4.0,10.0,80,0.01,,,0.76,135.000000,,2013-06-06 22:43:00,
2013-06-06 17:53:00,53.0,47.0,-100.00,ENE,77,4.0,10.0,80,0.01,,,0.76,135.000000,,2013-06-06 22:53:00,
2013-06-06 18:01:00,54.0,46.0,-100.00,East,79,4.0,6.0,73,0.00,,,0.61,114.000000,,2013-06-06 23:01:00,
2013-06-06 18:22:00,54.0,46.0,-100.00,East,79,4.0,6.0,73,0.00,,,0.61,114.000000,,2013-06-06 23:22:00,
2013-06-06 18:33:00,54.0,46.0,-100.00,East,79,4.0,6.0,73,0.00,,,0.61,114.000000,,2013-06-06 23:33:00,
2013-06-06 18:43:00,54.0,46.0,-100.00,East,79,4.0,6.0,73,0.00,,,0.61,114.000000,,2013-06-06 23:43:00,
2013-06-06 18:52:00,54.0,46.0,-100.00,East,79,4.0,6.0,73,0.00,,,0.61,114.000000,,2013-06-06 23:52:00,
2013-06-06 19:01:00,54.0,44.0,-100.00,ENE,72,4.0,9.0,69,0.00,,,0.53,124.000000,,2013-06-07 00:01:00,
2013-06-06 19:22:00,54.0,44.0,-100.00,ENE,72,4.0,9.0,69,0.00,,,0.53,124.000000,,2013-06-07 00:22:00,
2013-06-06 19:32:00,54.0,44.0,-100.00,ENE,72,4.0,9.0,69,0.00,,,0.53,124.000000,,2013-06-07 00:32:00,
2013-06-06 19:42:00,54.0,44.0,-100.00,ENE,72,4.0,9.0,69,0.00,,,0.53,124.000000,,2013-06-07 00:42:00,
2013-06-06 19:52:00,54.0,44.0,-100.00,ENE,72,4.0,9.0,69,0.00,,,0.53,124.000000,,2013-06-07 00:52:00,
2013-06-06 20:01:00,52.0,44.0,-100.00,East,81,3.0,9.0,73,0.00,,,0.41,90.000000,,2013-06-07 01:01:00,
2013-06-06 20:22:00,52.0,44.0,-100.00,East,81,3.0,9.0,73,0.00,,,0.41,90.000000,,2013-06-07 01:22:00,
2013-06-06 20:33:00,52.0,44.0,-100.00,East,81,3.0,9.0,73,0.00,,,0.41,90.000000,,2013-06-07 01:33:00,
2013-06-06 20:42:00,52.0,44.0,-100.00,East,81,3.0,9.0,73,0.00,,,0.41,90.000000,,2013-06-07 01:42:00,
2013-06-06 20:52:00,52.0,44.0,-100.00,East,81,3.0,9.0,73,0.00,,,0.41,90.000000,,2013-06-07 01:52:00,
2013-06-06 21:01:00,49.0,45.0,-100.00,East,88,2.0,4.0,86,0.00,,,0.33,14.000000,,2013-06-07 02:01:00,
2013-06-06 21:22:00,49.0,45.0,-100.00,East,88,2.0,4.0,86,0.00,,,0.33,14.000000,,2013-06-07 02:22:00,
2013-06-06 21:32:00,49.0,45.0,-100.00,East,88,2.0,4.0,86,0.00,,,0.33,14.000000,,2013-06-07 02:32:00,
2013-06-06 21:42:00,49.0,45.0,-100.00,East,88,2.0,4.0,86,0.00,,,0.33,14.000000,,2013-06-07 02:42:00,
2013-06-06 21:52:00,49.0,45.0,-100.00,East,88,2.0,4.0,86,0.00,,,0.33,14.000000,,2013-06-07 02:52:00,
2013-06-06 22:01:00,48.0,45.0,-100.00,ENE,76,2.0,3.0,91,0.00,,,0.26,0.000000,,2013-06-07 03:01:00,
2013-06-06 22:22:00,48.0,45.0,-100.00,ENE,76,2.0,3.0,91,0.00,,,0.26,0.000000,,2013-06-07 03:22:00,
2013-06-06 22:33:00,48.0,45.0,-100.00,ENE,76,2.0,3.0,91,0.00,,,0.26,0.000000,,2013-06-07 03:33:00,
2013-06-06 22:44:00,48.0,45.0,-100.00,ENE,76,2.0,3.0,91,0.00,,,0.26,0.000000,,2013-06-07 03:44:00,
2013-06-06 22:53:00,48.0,45.0,-100.00,ENE,76,2.0,3.0,91,0.00,,,0.26,0.000000,,2013-06-07 03:53:00,
2013-06-06 23:01:00,48.0,46.0,-100.00,North,4,0.0,2.0,93,0.00,,,0.24,0.000000,,2013-06-07 04:01:00,
2013-06-06 23:23:00,48.0,46.0,-100.00,North,4,0.0,2.0,93,0.00,,,0.24,0.000000,,2013-06-07 04:23:00,
2013-06-06 23:33:00,48.0,46.0,-100.00,North,4,0.0,2.0,93,0.00,,,0.24,0.000000,,2013-06-07 04:33:00,
2013-06-06 23:42:00,48.0,46.0,-100.00,North,4,0.0,2.0,93,0.00,,,0.24,0.000000,,2013-06-07 04:42:00,
2013-06-06 23:53:00,48.0,46.0,-100.00,North,4,0.0,2.0,93,0.00,,,0.24,0.000000,,2013-06-07 04:53:00,